Showing default

COSMOS 2500 (GLONASS), 40001

Orbit data source: Space-Track

COSMOS 2500 (GLONASS), 40001 is a Commonwealth of Independent States-origin payload satellite in MEO that was launched on Sat, 14 Jun 2014 UTC via a SOYUZ-2-1B launch vehicle from the Plesetsk Missile And Space Complex (PKMTR). Payload-class satellites include a variety of spacecraft equipped with specific instruments for various scientific and technological missions. These include communications satellites like Starlink; space stations such as the ISS; scientific satellites like the Hubble; Earth observation satellites from companies like Planet Labs, Umbra, and HawkEye 360; GPS; miniature CubeSats for education and research; and military/defense satellites.

Loading next visibility...
Identifier
40001, 2014-032A
Orbit
MEO
Country
Flag of CISCIS
Related business
Manufacturer
Resehetnev ISS
Mission
Operational Defense Navigation
Bus & Motor
URAGAN, Unknown motor
Mass
1,450 kg wet, ~1,200 kg dry
Launch date (UTC)
2014-06-14 (12 years ago)
Launch vehicle
SOYUZ-2-1B
Launch site
Plesetsk Missile And Space Complex (PKMTR)
Object type
Payload
Rocket body
Debris
Shape & HBR
Cyl + 1 Ant + 2 Pan, 3.9 m
Radar Cross Section
8.467 m², Large (>1 m²)

Expand to show TLE details & history
Last TLE update: 1 day ago

TLE from 1 day ago
0 COSMOS 2500 (GLONASS)
1 40001U 14032A   26172.26192068 -.00000067  00000-0  00000+0 0  9990
2 40001  65.2298 313.5443 0007492 184.9913 174.9944  2.13105734 93544
Epoch: 2026-06-21T06:17Z
TLE epoch observation values (Epoch: 2026-06-21T06:17:09.946Z)
Latitude
-0.00007°
Longitude
-50.22551°
Altitude
19,149.184 km
Speed
3.95 km/s
True Right ascension
20h 54m 07s
True Declination
0° 00' 00"
Sunlit
Object was in daylight at epoch
Visualization orbit readout
Latitude
Unknown
Longitude
Unknown
Altitude
Unknown
Speed
Unknown
Apparent Right ascension
Unknown
Apparent Declination
Unknown
Sunlit
N/A
Visualization observer readout
Local Sidereal Time
23:27:23
Azimuth
Unknown
Elevation
Unknown
Doppler factor
Unknown
Orbital elements
Apogee altitude
19,148.307 km
Perigee altitude
19,110.086 km
Semi-major axis
25,507.333 km
Eccentricity
0.00075
Inclination
65.2298°
RAAN
313.5443°
Arg. of periapsis
184.9913°
True anomaly
175.00188°
Mean anomaly
174.9944°
Eccentric anomaly
174.99814°
Mean motion
0.53278 °/min
Orbital period
675.7 mins
BSTAR
0
Loading maneuver chart data...
Computing Atmospheric mass density...
Loading historical data...
Loading historical data...
Loading historical data...
Loading historical data...
Loading historical data...
Loading historical data...
Loading historical data...
Other satellites on launch #32 in the year 2014 (2014-06-14 UTC)

Documentation

Showing up to 5 results
|